Tracking 29892 objects as of 21-Nov-2024
HD Live streaming from Space Station
objects crossing your sky now

CENTISPACE-1 S5

Track CENTISPACE-1 S5 now!
10-day predictions


NORAD ID: 54020
Int'l Code: 2022-126A
Perigee: 689.5 km
Apogee: 705.5 km
Inclination: 55.0 °
Period: 98.6 minutes
Semi major axis: 7068 km
RCS: Unknown
Launch date: October 7, 2022
Source: People's Republic of China (PRC)
Launch site: Yellow Sea Launch Area, China (YSLA)
Your satellite tracking list
Your tracking list is empty




NASA's NSSDC Master Catalog

Two Line Element Set (TLE):
1 54020U 22126A   24326.12677867  .00002264  00000-0  49694-3 0  9994
2 54020  54.9998 342.9761 0011362 211.8322 148.1985 14.60868400113212
Source of the keplerian elements: AFSPC